Date String (YYYY-MM-DD hh:mm:ss) UTC,Instrument flags,Ambient pressure (hPa),Sample flow (lpm),Bypass flow (lpm),Sample temperature (°C),Ambient temperature (°C),ASC tube jacket temperature (°C),LED temperature (°C),Box temperature (°C),Sample RH (%),Span deviation,Mass concentration (μg/m³),Mass concentration (μg/m³),Mass concentration (μg/m³)
DateTimeUTC,F1_M11,P_M11,Q1_M11,Q2_M11,T1_M11,T2_M11,T3_M11,T4_M11,T5_M11,U1_M11,ZSPAN_M11,X0_M11,X2_M11,X1_M11
2022-11-30 20:00:00,,0824.5,5.02,0.00,24.1,22.9,00.0,32.9,26.0,08.0,0000.0,0015.09,0009.87,0009.58
2022-11-30 20:01:00,,0824.5,5.00,0.00,24.1,22.9,00.0,32.9,26.0,07.9,0000.0,0015.32,0009.88,0009.58
2022-11-30 20:02:00,,0824.4,5.00,0.00,24.1,22.9,00.0,32.9,26.0,08.0,0000.0,0015.56,0009.91,0009.60
2022-11-30 20:03:00,,0824.4,5.01,0.00,24.1,22.9,00.0,32.9,26.0,07.9,0000.0,0015.45,0009.92,0009.61
2022-11-30 20:04:00,,0824.5,5.00,0.00,24.1,22.9,00.0,32.9,26.0,08.0,0000.0,0015.44,0009.93,0009.62
2022-11-30 20:05:00,,0824.6,5.00,0.00,24.1,22.9,00.0,32.9,25.9,07.9,0000.0,0015.53,0009.97,0009.64
2022-11-30 20:06:00,,0824.5,5.01,0.00,24.1,22.9,00.0,33.0,25.9,07.9,0000.0,0015.17,0009.98,0009.65
2022-11-30 20:07:00,,0824.4,4.99,0.00,24.1,22.9,00.0,33.0,25.9,07.8,0000.0,0015.03,0009.97,0009.65
2022-11-30 20:08:00,,0824.3,4.99,0.00,24.1,23.0,00.0,33.0,26.0,07.8,0000.0,0014.72,0009.93,0009.62
2022-11-30 20:09:00,,0824.2,5.01,0.00,24.2,23.0,00.0,33.0,26.0,07.8,0000.0,0014.31,0009.96,0009.62
2022-11-30 20:10:00,,0824.3,5.02,0.00,24.2,22.9,00.0,33.0,26.0,07.8,0000.0,0014.28,0009.95,0009.61
2022-11-30 20:11:00,,0824.4,4.97,0.00,24.2,22.9,00.0,33.0,26.0,08.0,0000.0,0014.30,0009.96,0009.59
2022-11-30 20:12:00,,0824.4,5.00,0.00,24.2,22.9,00.0,33.0,25.9,08.1,0000.0,0014.32,0009.99,0009.60
2022-11-30 20:13:00,,0824.4,5.01,0.00,24.2,22.9,00.0,33.0,26.0,07.9,0000.0,0014.03,0010.00,0009.59
2022-11-30 20:14:00,,0824.4,5.00,0.00,24.2,23.0,00.0,33.0,26.0,07.8,0000.0,0013.88,0010.01,0009.57
2022-11-30 20:15:00,,0824.4,5.00,0.00,24.2,23.0,00.0,33.0,26.0,08.0,0000.0,0013.93,0010.01,0009.57
2022-11-30 20:16:00,,0824.3,5.01,0.00,24.2,23.0,00.0,33.0,26.1,08.1,0000.0,0013.97,0010.05,0009.59
2022-11-30 20:17:00,,0824.2,5.01,0.00,24.2,23.0,00.0,33.0,26.1,07.9,0000.0,0014.05,0010.11,0009.63
2022-11-30 20:18:00,,0824.3,5.00,0.00,24.2,23.0,00.0,33.0,26.1,07.9,0000.0,0013.69,0010.17,0009.67
2022-11-30 20:19:00,,0824.4,5.00,0.00,24.2,23.0,00.0,33.0,26.1,08.0,0000.0,0013.87,0010.28,0009.75
2022-11-30 20:20:00,,0824.4,4.98,0.00,24.2,23.0,00.0,33.1,26.1,08.1,0000.0,0013.94,0010.31,0009.80
2022-11-30 20:21:00,,0824.4,4.99,0.00,24.3,23.0,00.0,33.1,26.1,08.0,0000.0,0014.10,0010.38,0009.84
2022-11-30 20:22:00,,0824.4,5.00,0.00,24.3,23.1,00.0,33.1,26.1,08.0,0000.0,0014.13,0010.41,0009.87
2022-11-30 20:23:00,,0824.3,4.99,0.00,24.3,23.1,00.0,33.1,26.1,07.9,0000.0,0014.13,0010.42,0009.90
2022-11-30 20:24:00,,0824.2,5.01,0.00,24.3,23.1,00.0,33.1,26.1,07.9,0000.0,0014.08,0010.44,0009.94
2022-11-30 20:25:00,,0824.3,4.99,0.00,24.3,23.1,00.0,33.1,26.1,07.8,0000.0,0014.00,0010.45,0009.98
2022-11-30 20:26:00,,0824.2,5.01,0.00,24.3,23.1,00.0,33.1,26.2,07.8,0000.0,0013.94,0010.44,0010.01
2022-11-30 20:27:00,,0824.2,4.99,0.00,24.3,23.2,00.0,33.1,26.2,07.8,0000.0,0013.95,0010.44,0010.02
2022-11-30 20:28:00,,0824.2,5.01,0.00,24.3,23.2,00.0,33.1,26.2,07.7,0000.0,0013.87,0010.42,0010.02
2022-11-30 20:29:00,,0824.1,4.99,0.00,24.3,23.2,00.0,33.1,26.3,07.8,0000.0,0014.16,0010.43,0010.04
2022-11-30 20:30:00,,0824.1,4.99,0.00,24.4,23.2,00.0,33.1,26.3,07.7,0000.0,0014.48,0010.41,0010.04
2022-11-30 20:31:00,,0824.1,5.01,0.00,24.4,23.2,00.0,33.2,26.3,07.8,0000.0,0014.47,0010.43,0010.07
2022-11-30 20:32:00,,0824.1,5.00,0.00,24.4,23.2,00.0,33.2,26.2,07.8,0000.0,0014.42,0010.43,0010.10
2022-11-30 20:33:00,,0824.2,5.00,0.00,24.4,23.2,00.0,33.2,26.3,07.8,0000.0,0014.48,0010.48,0010.15
2022-11-30 20:34:00,,0824.4,4.99,0.00,24.4,23.2,00.0,33.2,26.3,07.9,0000.0,0014.54,0010.55,0010.21
2022-11-30 20:35:00,,0824.4,5.02,0.00,24.4,23.2,00.0,33.2,26.2,07.9,0000.0,0014.62,0010.60,0010.26
2022-11-30 20:36:00,,0824.3,4.98,0.00,24.4,23.2,00.0,33.2,26.2,07.9,0000.0,0014.78,0010.67,0010.30
2022-11-30 20:37:00,,0824.1,5.00,0.00,24.4,23.2,00.0,33.2,26.3,08.0,0000.0,0014.98,0010.73,0010.35
2022-11-30 20:38:00,,0824.1,5.01,0.00,24.4,23.2,00.0,33.2,26.3,08.0,0000.0,0015.19,0010.80,0010.41
2022-11-30 20:39:00,,0824.1,4.98,0.00,24.4,23.2,00.0,33.2,26.3,07.9,0000.0,0015.64,0010.86,0010.47
2022-11-30 20:40:00,,0824.2,5.01,0.00,24.4,23.2,00.0,33.2,26.3,08.0,0000.0,0015.53,0010.95,0010.52
2022-11-30 20:41:00,,0824.2,5.01,0.00,24.4,23.2,00.0,33.3,26.3,08.1,0000.0,0015.15,0010.98,0010.56
2022-11-30 20:42:00,,0824.1,4.98,0.00,24.4,23.2,00.0,33.3,26.3,08.0,0000.0,0015.10,0010.98,0010.57
2022-11-30 20:43:00,,0824.1,5.00,0.00,24.4,23.2,00.0,33.3,26.3,08.0,0000.0,0015.27,0010.99,0010.57
2022-11-30 20:44:00,,0824.1,5.01,0.00,24.5,23.2,00.0,33.3,26.3,08.0,0000.0,0015.89,0011.00,0010.58
2022-11-30 20:45:00,,0824.2,4.99,0.00,24.5,23.3,00.0,33.3,26.3,08.0,0000.0,0016.07,0011.02,0010.58
2022-11-30 20:46:00,,0824.2,5.00,0.00,24.5,23.3,00.0,33.3,26.3,07.9,0000.0,0016.09,0011.03,0010.60
2022-11-30 20:47:00,,0824.1,5.01,0.00,24.5,23.3,00.0,33.3,26.4,08.0,0000.0,0016.11,0011.05,0010.63
2022-11-30 20:48:00,,0824.1,4.98,0.00,24.5,23.3,00.0,33.3,26.4,08.1,0000.0,0016.21,0011.08,0010.67
2022-11-30 20:49:00,,0824.2,5.01,0.00,24.5,23.3,00.0,33.3,26.4,08.0,0000.0,0016.43,0011.12,0010.72
2022-11-30 20:50:00,,0824.4,5.01,0.00,24.5,23.3,00.0,33.3,26.4,08.0,0000.0,0016.06,0011.16,0010.74
2022-11-30 20:51:00,,0824.5,4.98,0.00,24.5,23.3,00.0,33.3,26.4,07.9,0000.0,0016.02,0011.16,0010.77
2022-11-30 20:52:00,,0824.4,5.00,0.00,24.5,23.3,00.0,33.3,26.4,08.0,0000.0,0016.14,0011.18,0010.82
2022-11-30 20:53:00,,0824.2,5.00,0.00,24.6,23.3,00.0,33.3,26.4,08.0,0000.0,0016.16,0011.21,0010.85
2022-11-30 20:54:00,,0824.0,4.98,0.00,24.6,23.3,00.0,33.4,26.5,08.0,0000.0,0016.14,0011.25,0010.89
2022-11-30 20:55:00,,0824.0,5.01,0.00,24.6,23.3,00.0,33.4,26.5,07.9,0000.0,0015.41,0011.27,0010.93
2022-11-30 20:56:00,,0824.0,5.01,0.00,24.5,23.3,00.0,33.4,26.4,07.9,0000.0,0015.25,0011.27,0010.95
2022-11-30 20:57:00,,0824.1,5.00,0.00,24.5,23.2,00.0,33.4,26.4,08.0,0000.0,0015.24,0011.31,0010.98
2022-11-30 20:58:00,,0824.1,5.00,0.00,24.5,23.2,00.0,33.4,26.4,08.0,0000.0,0015.23,0011.31,0011.00
2022-11-30 20:59:00,,0824.1,5.02,0.00,24.5,23.2,00.0,33.4,26.3,08.1,0000.0,0015.11,0011.32,0011.01
